Southport, FL

9:24 AM CDT on September 29, 2016 (GMT -0500)
Northwest Florida Beaches International

Weather History for KECP - September, 2013

Change the Weather History Date:

Tuesday, September 17, 2013

  Actual Average Record
Temperature  
Mean Temperature 83 °F -  
Max Temperature 94 °F - 94 °F (2013)
Min Temperature 72 °F - 66 °F (2011)
Degree Days  
Heating Degree Days 0    
Cooling Degree Days 18    
Growing Degree Days 33 (Base 50)    
Moisture  
Dew Point 76 °F    
Average Humidity 75    
Maximum Humidity 100    
Minimum Humidity 49    
Precipitation  
Precipitation 0.00 in - 0.01 in (2016)
Month to date precipitation  
Year to date precipitation  
Sea Level Pressure  
Sea Level Pressure 30.05 in    
Wind  
Wind Speed 4 mph (NE)    
Max Wind Speed 22 mph    
Max Gust Speed 24 mph    
Visibility 8 miles    
Events Rain , Thunderstorm    
T = Trace of Precipitation, MM = Missing Value Source: NWS Daily Summary

Daily Weather History Graph

Daily Weather History Graph

Search for Another Location

Airport or City:

Trip Planner

Search our weather history database for the weather conditions in past years. The results will help you decide how hot, cold, wet, or windy it might be!

Date:

Astronomy

Sep. 17, 2013 Rise Set
Actual Time 7:28 AM EDT 7:45 PM EDT
Civil Twilight 7:04 AM EDT 8:09 PM EDT
Nautical Twilight 6:36 AM EDT 8:37 PM EDT
Astronomical Twilight 6:08 AM EDT 9:06 PM EDT
Moon 6:29 PM EDT (9/17) 5:28 AM EDT (9/17)
Length of Visible Light 13h 04m
Length of Day
12h 16m
Waxing Gibbous, 96% of the Moon is Illuminated
Sep 17
Waxing Gibbous
Sep 19
Full
Sep 26
Last Quarter
Oct 4
New
Oct 11
First Quarter

Hourly Weather History & Observations

Time (EDT) Temp. Heat Index Dew Point Humidity Pressure Visibility Wind Dir Wind Speed Gust Speed Precip Events Conditions
12:53 AM 75.0 °F - 75.0 °F 100% 30.06 in 10.0 mi NW 5.8 mph - N/A   Clear
1:53 AM 75.0 °F - 75.0 °F 100% 30.07 in 9.0 mi NNW 3.5 mph - N/A   Scattered Clouds
2:53 AM 75.0 °F - 75.0 °F 100% 30.05 in 10.0 mi Calm Calm - N/A   Clear
3:53 AM 73.9 °F - 73.9 °F 100% 30.04 in 9.0 mi Calm Calm - N/A   Clear
4:53 AM 73.0 °F - 73.0 °F 100% 30.04 in 10.0 mi NNW 4.6 mph - N/A   Clear
5:53 AM 73.0 °F - 73.0 °F 100% 30.04 in 10.0 mi Calm Calm - N/A   Clear
6:53 AM 73.0 °F - 73.0 °F 100% 30.07 in 9.0 mi Calm Calm - N/A   Clear
7:53 AM 73.0 °F - 73.0 °F 100% 30.08 in 10.0 mi Calm Calm - N/A   Partly Cloudy
8:53 AM 75.9 °F - 75.9 °F 100% 30.09 in 9.0 mi Calm Calm - N/A   Clear
9:53 AM 80.1 °F 85.8 °F 77.0 °F 90% 30.10 in 10.0 mi NNE 8.1 mph - N/A   Clear
10:53 AM 82.0 °F 90.2 °F 77.0 °F 85% 30.11 in 10.0 mi ENE 4.6 mph - N/A   Partly Cloudy
11:53 AM 88.0 °F 100.2 °F 77.0 °F 70% 30.10 in 10.0 mi NNE 4.6 mph - N/A   Clear
12:53 PM 90.0 °F 102.5 °F 77.0 °F 65% 30.09 in 10.0 mi ESE 4.6 mph - N/A   Scattered Clouds
1:53 PM 90.0 °F 100.2 °F 75.0 °F 61% 30.07 in 10.0 mi ESE 9.2 mph - N/A   Scattered Clouds
2:53 PM 91.0 °F 98.2 °F 72.0 °F 53% 30.04 in 10.0 mi ENE 8.1 mph - N/A   Partly Cloudy
3:53 PM 93.0 °F 100.7 °F 72.0 °F 50% 30.01 in 10.0 mi NE 6.9 mph 15.0 mph N/A   Scattered Clouds
4:40 PM 86.0 °F 96.9 °F 77.0 °F 74% 29.99 in 5.0 mi South 12.7 mph - N/A Thunderstorm Unknown
4:53 PM 81.0 °F 89.9 °F 80.1 °F 97% 30.04 in 5.0 mi SW 9.2 mph 24.2 mph N/A Rain , Thunderstorm Light Thunderstorms and Rain
5:04 PM 80.6 °F 88.1 °F 78.8 °F 94% 30.02 in 1.5 mi Variable 6.9 mph - N/A Rain , Thunderstorm Heavy Thunderstorms and Rain
5:28 PM 75.2 °F - 75.2 °F 100% 30.00 in 5.0 mi NW 5.8 mph - N/A Rain , Thunderstorm Heavy Thunderstorms and Rain
5:53 PM 79.0 °F - 78.1 °F 97% 30.02 in 10.0 mi South 5.8 mph - N/A   Overcast
6:53 PM 78.1 °F - 78.1 °F 100% 30.02 in 10.0 mi NNW 3.5 mph - N/A   Scattered Clouds
7:53 PM 78.1 °F - 78.1 °F 100% 30.03 in 10.0 mi NNE 9.2 mph - N/A   Overcast
8:02 PM 77.0 °F - 75.2 °F 94% 30.01 in 1.8 mi Calm Calm - N/A Rain Heavy Rain
8:06 PM 77.0 °F - 73.4 °F 89% 29.99 in 4.0 mi Variable 3.5 mph - N/A Rain Heavy Rain
8:53 PM 77.0 °F - 77.0 °F 100% 30.04 in 4.0 mi Calm Calm - N/A   Overcast
9:00 PM 75.2 °F - 75.2 °F 100% 30.03 in 5.0 mi SE 12.7 mph 23.0 mph N/A Rain Heavy Rain
9:53 PM 75.9 °F - 75.9 °F 100% 30.06 in 10.0 mi NNE 6.9 mph - N/A   Overcast
10:53 PM 77.0 °F - 77.0 °F 100% 30.07 in 10.0 mi North 4.6 mph - N/A   Mostly Cloudy
11:53 PM 77.0 °F - 75.9 °F 96% 30.08 in 10.0 mi NE 4.6 mph - N/A   Partly Cloudy